Weather History for LFKJ - October, 2012

Change the Weather History Date:

Wednesday, October 31, 2012

  Actual Average Record
Temperature  
Mean Temperature 58 °F -  
Max Temperature 68 °F 62 °F 77 °F (2005)
Min Temperature 48 °F 45 °F 44 °F (1997)
Degree Days  
Heating Degree Days 7    
Growing Degree Days 8 (Base 50)    
Moisture  
Dew Point 50 °F    
Average Humidity 75    
Maximum Humidity 94    
Minimum Humidity 52    
Precipitation  
Precipitation 0.47 in 0.13 in - ()
Sea Level Pressure  
Sea Level Pressure 29.35 in    
Wind  
Wind Speed 7 mph ()    
Max Wind Speed 29 mph    
Max Gust Speed -    
Visibility 6.2 miles    
Events Rain    
Averages and records for this station are not official NWS values.
T = Trace of Precipitation, MM = Missing Value Source: Averaged Metar Reports

Daily Weather History Graph

Daily Weather History Graph

Search for Another Location

Airport or City:

Trip Planner

Search our weather history database for the weather conditions in past years. The results will help you decide how hot, cold, wet, or windy it might be!

Date:

Astronomy

Oct. 31, 2012 Rise Set
Actual Time 6:56 AM CET 5:19 PM CET
Civil Twilight 6:27 AM CET 5:48 PM CET
Nautical Twilight 5:54 AM CET 6:21 PM CET
Astronomical Twilight 5:22 AM CET 6:54 PM CET
Moon 6:17 PM CET (10/31) 8:24 AM CET (10/31)
Length of Visible Light 11h 21m
Length of Day
10h 23m
Full, 98% of the Moon is Illuminated
Oct 31
Full
Nov 7
Last Quarter
Nov 13
New
Nov 20
First Quarter
Nov 28
Full

Hourly Weather History & Observations

Time (CET) Temp. Dew Point Humidity Pressure Visibility Wind Dir Wind Speed Gust Speed Precip Events Conditions
12:00 AM 50.0 °F 41.0 °F 71% 29.68 in - NE 5.8 mph - N/A   Clear
12:30 AM 50.0 °F 41.0 °F 71% 29.65 in 6.2 mi NE 5.8 mph - N/A   Unknown
1:00 AM 50 °F 40 °F 60% 29.68 in 37 mi ENE 4.6 mph - -   Clear
1:00 AM 50.0 °F 41.0 °F 71% 29.65 in 6.2 mi ENE 4.6 mph - N/A   Unknown
1:30 AM 50.0 °F 41.0 °F 71% 29.65 in 6.2 mi NE 6.9 mph - N/A   Unknown
2:00 AM 50.0 °F 41.0 °F 71% 29.65 in 6.2 mi NE 10.4 mph - N/A   Unknown
2:30 AM 50.0 °F 41.0 °F 71% 29.62 in 6.2 mi ENE 8.1 mph - N/A   Unknown
3:00 AM 50.0 °F 41.0 °F 71% 29.62 in 6.2 mi NE 5.8 mph - N/A   Unknown
3:30 AM 50.0 °F 41.0 °F 71% 29.59 in 6.2 mi ENE 9.2 mph - N/A   Unknown
4:00 AM 51.8 °F 41.0 °F 67% 29.56 in 6.2 mi NNE 5.8 mph - N/A   Unknown
4:30 AM 51.8 °F 41.0 °F 67% 29.53 in 6.2 mi ENE 5.8 mph - N/A   Unknown
5:00 AM 53.6 °F 41.0 °F 62% 29.50 in 6.2 mi NE 10.4 mph - N/A   Unknown
5:30 AM 55.4 °F 41.0 °F 58% 29.50 in 6.2 mi NNE 8.1 mph - N/A   Mostly Cloudy
6:00 AM 57.2 °F 41.0 °F 55% 29.47 in 6.2 mi NNE 8.1 mph - N/A   Mostly Cloudy
6:30 AM 57.2 °F 44.6 °F 63% 29.47 in 6.2 mi WSW 4.6 mph - N/A   Scattered Clouds
7:00 AM 57 °F 44 °F 52% 29.47 in 16 mi North 2.3 mph - -   Overcast
7:00 AM 57.2 °F 42.8 °F 59% 29.44 in 6.2 mi Variable 2.3 mph - N/A   Scattered Clouds
7:30 AM 55.4 °F 44.6 °F 67% 29.44 in 6.2 mi Calm Calm - N/A   Scattered Clouds
8:00 AM 55.4 °F 46.4 °F 72% 29.42 in 6.2 mi NE 8.1 mph - N/A   Scattered Clouds
8:30 AM 57.2 °F 48.2 °F 72% 29.42 in 6.2 mi Variable 1.2 mph - N/A   Mostly Cloudy
9:00 AM 59.0 °F 50.0 °F 72% 29.42 in 6.2 mi Variable 3.5 mph - N/A   Mostly Cloudy
9:30 AM 59.0 °F 51.8 °F 77% 29.39 in 6.2 mi Variable 2.3 mph - N/A   Mostly Cloudy
10:00 AM 59.0 °F 51.8 °F 77% 29.39 in 6.2 mi NE 8.1 mph - N/A Rain Light Rain
10:30 AM 59.0 °F 51.8 °F 77% 29.36 in 6.2 mi NE 9.2 mph - N/A Rain Light Rain
11:00 AM 60.8 °F 53.6 °F 77% 29.36 in 6.2 mi NE 9.2 mph - N/A   Mostly Cloudy
11:30 AM 62.6 °F 53.6 °F 72% 29.33 in 6.2 mi NE 6.9 mph - N/A   Mostly Cloudy
12:00 PM 68.0 °F 51.8 °F 56% 29.30 in 6.2 mi ESE 11.5 mph - N/A   Mostly Cloudy
12:30 PM 68.0 °F 51.8 °F 56% 29.30 in 6.2 mi ESE 9.2 mph - N/A Rain Light Rain
1:00 PM 65 °F 54 °F 59% 29.27 in 12 mi East 6.9 mph - - Rain Light Rain
1:00 PM 66.2 °F 53.6 °F 64% 29.27 in 6.2 mi ENE 6.9 mph - N/A Rain Light Rain
1:30 PM 64.4 °F 55.4 °F 73% 29.24 in 6.2 mi South 4.6 mph - N/A Rain Light Rain
2:00 PM 64.4 °F 57.2 °F 77% 29.24 in 6.2 mi SSW 12.7 mph - N/A Rain Light Rain
2:30 PM 62.6 °F 57.2 °F 82% 29.21 in 5.0 mi NE 6.9 mph - N/A Rain Light Rain
3:00 PM 60.8 °F 57.2 °F 88% 29.21 in 6.2 mi NE 9.2 mph - N/A Rain Light Rain
3:30 PM 60.8 °F 57.2 °F 88% 29.18 in 6.2 mi NE 11.5 mph - N/A Rain Light Rain
4:00 PM 60.8 °F 59.0 °F 94% 29.21 in 0.7 mi South 9.2 mph - N/A Rain Light Rain
4:30 PM 60.8 °F 57.2 °F 88% 29.18 in 6.2 mi ESE 5.8 mph - N/A Rain Light Rain
5:00 PM 60.8 °F 57.2 °F 88% 29.18 in 1.6 mi Variable 2.3 mph - N/A Rain Light Rain
5:30 PM 60.8 °F 57.2 °F 88% 29.18 in 6.2 mi ENE 4.6 mph - N/A   Mostly Cloudy
6:00 PM 60.8 °F 57.2 °F 88% 29.18 in 4.3 mi SSW 16.1 mph - N/A Rain Light Rain Showers
6:30 PM 59.0 °F 55.4 °F 88% 29.18 in 6.2 mi NE 6.9 mph - N/A   Mostly Cloudy
7:00 PM 58 °F 55 °F 86% 29.19 in 9 mi NE 6.9 mph - - Rain Light Rain Showers
7:00 PM 59.0 °F 55.4 °F 88% 29.18 in 6.2 mi NE 9.2 mph - N/A Rain Light Rain Showers
7:30 PM 59.0 °F 55.4 °F 88% 29.18 in 6.2 mi SE 5.8 mph - N/A Rain Light Rain
8:00 PM 59.0 °F 55.4 °F 88% 29.15 in 6.2 mi ENE 9.2 mph - N/A   Mostly Cloudy
8:30 PM 59.0 °F 57.2 °F 94% 29.12 in 6.2 mi SE 9.2 mph - N/A Rain Light Rain
9:00 PM 62.6 °F 57.2 °F 82% 29.12 in 6.2 mi South 17.3 mph - N/A   Mostly Cloudy
9:30 PM 62.6 °F 57.2 °F 82% 29.12 in 5.0 mi SSW 28.8 mph - N/A Rain Light Rain
10:00 PM 60.8 °F 57.2 °F 88% 29.12 in 5.0 mi SSW 23.0 mph - N/A Rain Rain
10:30 PM 60.8 °F 57.2 °F 88% 29.12 in 5.0 mi SW 27.6 mph - N/A Rain Rain
11:00 PM 60.8 °F 55.4 °F 82% 29.15 in 6.2 mi WSW 18.4 mph - N/A Rain Rain
11:30 PM 59.0 °F 55.4 °F 88% 29.18 in 6.2 mi WSW 4.6 mph - N/A Rain Light Rain